| time (UTC) | temp F | wind direction | speed MPH | gust MPH | rain 1hr in | rain 24hr in | rain mn in | humidity % | barometer mb |
| 20260906083631 | 82 | 104 | 3.0 | 4.0 | 0.00 | 0.00 | 0.00 | 50 | 1015.5 |
| 20260906083121 | 82 | 104 | 3.0 | 4.0 | 0.00 | 0.00 | 0.00 | 50 | 1015.5 |
| 20260906082621 | 82 | 104 | 3.0 | 4.0 | 0.00 | 0.00 | 0.00 | 49 | 1015.5 |
| 20260906082121 | 83 | 107 | 3.0 | 4.0 | 0.00 | 0.00 | 0.00 | 49 | 1015.5 |
| 20260906081631 | 83 | 109 | 3.0 | 4.0 | 0.00 | 0.00 | 0.00 | 50 | 1015.5 |
| 20260906080625 | 82 | 109 | 3.0 | 4.0 | 0.00 | 0.00 | 0.00 | 49 | 1015.4 |
| 20260906075622 | 82 | 111 | 3.0 | 4.0 | 0.00 | 0.00 | 0.00 | 48 | 1015.4 |
| 20260906075117 | 82 | 111 | 3.0 | 4.0 | 0.00 | 0.00 | 0.00 | 48 | 1015.4 |
| 20260906074617 | 82 | 112 | 3.0 | 4.0 | 0.00 | 0.00 | 0.00 | 47 | 1015.3 |
| 20260906074115 | 82 | 112 | 3.0 | 4.0 | 0.00 | 0.00 | 0.00 | 47 | 1015.2 |
| 20260906073616 | 82 | 113 | 2.0 | 3.0 | 0.00 | 0.00 | 0.00 | 47 | 1015.2 |
| 20260906073116 | 82 | 113 | 3.0 | 6.0 | 0.00 | 0.00 | 0.00 | 46 | 1015.2 |
| 20260906072627 | 82 | 113 | 3.0 | 6.0 | 0.00 | 0.00 | 0.00 | 47 | 1015.2 |
| 20260906072115 | 82 | 119 | 3.0 | 5.0 | 0.00 | 0.00 | 0.00 | 47 | 1015.2 |
| 20260906071617 | 83 | 142 | 4.0 | 5.0 | 0.00 | 0.00 | 0.00 | 47 | 1015.1 |
| 20260906071118 | 83 | 164 | 3.0 | 5.0 | 0.00 | 0.00 | 0.00 | 46 | 1015.0 |
| 20260906070610 | 83 | 164 | 3.0 | 5.0 | 0.00 | 0.00 | 0.00 | 46 | 1015.0 |
| 20260906070111 | 83 | 186 | 2.0 | 3.0 | 0.00 | 0.00 | 0.00 | 45 | 1014.9 |
| 20260906065615 | 83 | 186 | 2.0 | 4.0 | 0.00 | 0.00 | 0.00 | 45 | 1014.9 |
| 20260906065120 | 83 | 190 | 2.0 | 4.0 | 0.00 | 0.00 | 0.00 | 45 | 1015.4 |
| 20260906064617 | 83 | 190 | 3.0 | 4.0 | 0.00 | 0.00 | 0.00 | 44 | 1014.9 |
| 20260906064109 | 83 | 190 | 3.0 | 4.0 | 0.00 | 0.00 | 0.00 | 44 | 1014.8 |
| 20260906063619 | 84 | 190 | 2.0 | 3.0 | 0.00 | 0.00 | 0.00 | 43 | 1014.9 |
| 20260906063108 | 84 | 190 | 2.0 | 3.0 | 0.00 | 0.00 | 0.00 | 42 | 1014.8 |
| 20260906062608 | 84 | 190 | 2.0 | 3.0 | 0.00 | 0.00 | 0.00 | 41 | 1014.7 |
| 20260906062109 | 84 | 190 | 2.0 | 3.0 | 0.00 | 0.00 | 0.00 | 40 | 1014.6 |
| 20260906061610 | 84 | 190 | 2.0 | 3.0 | 0.00 | 0.00 | 0.00 | 39 | 1014.6 |
| 20260906061109 | 84 | 190 | 2.0 | 3.0 | 0.00 | 0.00 | 0.00 | 38 | 1014.7 |
| 20260906060121 | 85 | 190 | 1.0 | 2.0 | 0.00 | 0.00 | 0.00 | 38 | 1014.5 |
| 20260906055611 | 84 | 190 | 0.0 | 1.0 | 0.00 | 0.00 | 0.00 | 37 | 1014.5 |
| 20260906055119 | 83 | 190 | 0.0 | 1.0 | 0.00 | 0.00 | 0.00 | 39 | 1014.5 |
| 20260906054614 | 82 | 190 | 1.0 | 2.0 | 0.00 | 0.00 | 0.00 | 39 | 1014.5 |
| 20260906054107 | 81 | 190 | 1.0 | 3.0 | 0.00 | 0.00 | 0.00 | 40 | 1014.5 |
| 20260906053600 | 80 | 190 | 1.0 | 3.0 | 0.00 | 0.00 | 0.00 | 40 | 1014.5 |
| 20260906052558 | 79 | 190 | 1.0 | 2.0 | 0.00 | 0.00 | 0.00 | 42 | 1014.5 |
| 20260906052112 | 78 | 190 | 1.0 | 2.0 | 0.00 | 0.00 | 0.00 | 42 | 1014.5 |
| 20260906051057 | 76 | 190 | 2.0 | 3.0 | 0.00 | 0.00 | 0.00 | 43 | 1014.5 |
| 20260906050609 | 76 | 190 | 1.0 | 3.0 | 0.00 | 0.00 | 0.00 | 44 | 1014.4 |
| 20260906050105 | 75 | 190 | 1.0 | 3.0 | 0.00 | 0.00 | 0.00 | 44 | 1014.4 |
| 20260906045557 | 75 | 190 | 2.0 | 2.0 | 0.00 | 0.00 | 0.00 | 44 | 1014.4 |
| 20260906045100 | 74 | 190 | 2.0 | 1.0 | 0.00 | 0.00 | 0.00 | 44 | 1014.3 |
| 20260906043619 | 74 | 190 | 1.0 | 3.0 | 0.00 | 0.00 | 0.00 | 44 | 1014.3 |
| 20260906043120 | 73 | 190 | 1.0 | 3.0 | 0.00 | 0.00 | 0.00 | 44 | 1014.2 |
| 20260906042621 | 73 | 190 | 1.0 | 2.0 | 0.00 | 0.00 | 0.00 | 45 | 1014.1 |
| 20260906042130 | 73 | 190 | 1.0 | 2.0 | 0.00 | 0.00 | 0.00 | 45 | 1014.1 |
| 20260906041620 | 73 | 190 | 2.0 | 3.0 | 0.00 | 0.00 | 0.00 | 45 | 1014.2 |
| 20260906040621 | 72 | 190 | 2.0 | 3.0 | 0.00 | 0.00 | 0.00 | 45 | 1014.0 |
| 20260906040114 | 72 | 190 | 2.0 | 4.0 | 0.00 | 0.00 | 0.00 | 45 | 1014.0 |
| 20260906035614 | 72 | 190 | 2.0 | 4.0 | 0.00 | 0.00 | 0.00 | 45 | 1013.9 |
| 20260906035126 | 72 | 190 | 2.0 | 4.0 | 0.00 | 0.00 | 0.00 | 45 | 1013.8 |
| 20260906034615 | 72 | 190 | 2.0 | 4.0 | 0.00 | 0.00 | 0.00 | 45 | 1013.7 |
| 20260906034110 | 72 | 190 | 1.0 | 3.0 | 0.00 | 0.00 | 0.00 | 45 | 1013.8 |
| 20260906033620 | 72 | 190 | 1.0 | 3.0 | 0.00 | 0.00 | 0.00 | 45 | 1013.7 |
| 20260906033120 | 72 | 190 | 2.0 | 3.0 | 0.00 | 0.00 | 0.00 | 45 | 1013.8 |
| 20260906032617 | 72 | 190 | 2.0 | 3.0 | 0.00 | 0.00 | 0.00 | 45 | 1013.7 |
| 20260906032116 | 72 | 190 | 2.0 | 3.0 | 0.00 | 0.00 | 0.00 | 45 | 1013.6 |
| 20260906031615 | 72 | 190 | 1.0 | 3.0 | 0.00 | 0.00 | 0.00 | 45 | 1013.6 |
| 20260906031119 | 72 | 190 | 1.0 | 2.0 | 0.00 | 0.00 | 0.00 | 44 | 1013.6 |
| 20260906030609 | 73 | 190 | 1.0 | 3.0 | 0.00 | 0.00 | 0.00 | 44 | 1013.6 |
| 20260906030110 | 73 | 190 | 1.0 | 3.0 | 0.00 | 0.00 | 0.00 | 44 | 1013.6 |
| 20260906025614 | 73 | 190 | 1.0 | 2.0 | 0.00 | 0.00 | 0.00 | 44 | 1013.6 |
| 20260906025114 | 73 | 190 | 1.0 | 3.0 | 0.00 | 0.00 | 0.00 | 44 | 1013.5 |
| 20260906024609 | 73 | 190 | 1.0 | 3.0 | 0.00 | 0.00 | 0.00 | 44 | 1013.4 |
| 20260906024113 | 73 | 190 | 1.0 | 3.0 | 0.00 | 0.00 | 0.00 | 44 | 1013.3 |
| 20260906023613 | 73 | 190 | 1.0 | 4.0 | 0.00 | 0.00 | 0.00 | 44 | 1013.3 |
| 20260906023109 | 73 | 190 | 1.0 | 4.0 | 0.00 | 0.00 | 0.00 | 45 | 1013.3 |
| 20260906022611 | 73 | 190 | 1.0 | 3.0 | 0.00 | 0.00 | 0.00 | 45 | 1013.3 |
| 20260906022113 | 73 | 190 | 2.0 | 3.0 | 0.00 | 0.00 | 0.00 | 45 | 1013.2 |
| 20260906021618 | 73 | 190 | 2.0 | 3.0 | 0.00 | 0.00 | 0.00 | 45 | 1013.3 |
| 20260906021116 | 73 | 190 | 1.0 | 3.0 | 0.00 | 0.00 | 0.00 | 45 | 1013.4 |
| 20260906020116 | 73 | 190 | 2.0 | 3.0 | 0.00 | 0.00 | 0.00 | 44 | 1013.3 |
| 20260906015107 | 73 | 190 | 1.0 | 3.0 | 0.00 | 0.00 | 0.00 | 45 | 1013.3 |
| 20260906014611 | 73 | 190 | 1.0 | 3.0 | 0.00 | 0.00 | 0.00 | 45 | 1013.4 |
| 20260906014118 | 73 | 190 | 1.0 | 4.0 | 0.00 | 0.00 | 0.00 | 45 | 1013.4 |
| 20260906013613 | 73 | 190 | 2.0 | 4.0 | 0.00 | 0.00 | 0.00 | 45 | 1013.3 |
| 20260906013103 | 73 | 190 | 2.0 | 3.0 | 0.00 | 0.00 | 0.00 | 45 | 1013.3 |
| 20260906012604 | 74 | 190 | 1.0 | 3.0 | 0.00 | 0.00 | 0.00 | 45 | 1013.4 |
| 20260906012118 | 74 | 190 | 1.0 | 2.0 | 0.00 | 0.00 | 0.00 | 45 | 1013.5 |
| 20260906011104 | 74 | 190 | 1.0 | 3.0 | 0.00 | 0.00 | 0.00 | 44 | 1013.5 |
| 20260906010604 | 74 | 190 | 1.0 | 3.0 | 0.00 | 0.00 | 0.00 | 44 | 1013.6 |
| 20260906010116 | 74 | 190 | 1.0 | 3.0 | 0.00 | 0.00 | 0.00 | 44 | 1013.5 |
| 20260906005105 | 74 | 190 | 1.0 | 3.0 | 0.00 | 0.00 | 0.00 | 43 | 1013.6 |
| 20260906004604 | 74 | 190 | 1.0 | 3.0 | 0.00 | 0.00 | 0.00 | 43 | 1013.6 |
| 20260906004104 | 75 | 190 | 1.0 | 3.0 | 0.00 | 0.00 | 0.00 | 42 | 1013.7 |
| 20260906003614 | 75 | 190 | 2.0 | 3.0 | 0.00 | 0.00 | 0.00 | 41 | 1013.6 |
| 20260906003109 | 75 | 190 | 2.0 | 3.0 | 0.00 | 0.00 | 0.00 | 41 | 1013.5 |
| 20260906002604 | 75 | 190 | 1.0 | 3.0 | 0.00 | 0.00 | 0.00 | 41 | 1013.6 |
| 20260906002116 | 75 | 190 | 0.0 | 3.0 | 0.00 | 0.00 | 0.00 | 41 | 1013.5 |
| 20260906001608 | 75 | 190 | 0.0 | 0.0 | 0.00 | 0.00 | 0.00 | 41 | 1013.6 |
| 20260906001108 | 75 | 190 | 0.0 | 1.0 | 0.00 | 0.00 | 0.00 | 41 | 1013.6 |
| 20260906000613 | 75 | 190 | 1.0 | 3.0 | 0.00 | 0.00 | 0.00 | 41 | 1013.6 |
| 20260906000107 | 74 | 190 | 2.0 | 3.0 | 0.00 | 0.00 | 0.00 | 41 | 1013.6 |
| 20260905235102 | 74 | 190 | 2.0 | 3.0 | 0.00 | 0.00 | 0.00 | 39 | 1013.8 |
| 20260905234602 | 74 | 190 | 2.0 | 3.0 | 0.00 | 0.00 | 0.00 | 39 | 1013.8 |
| 20260905234102 | 74 | 190 | 1.0 | 2.0 | 0.00 | 0.00 | 0.00 | 39 | 1013.8 |
| 20260905233621 | 74 | 190 | 1.0 | 2.0 | 0.00 | 0.00 | 0.00 | 38 | 1013.8 |
| 20260905233114 | 74 | 190 | 1.0 | 2.0 | 0.00 | 0.00 | 0.00 | 38 | 1013.9 |
| 20260905232602 | 74 | 190 | 1.0 | 2.0 | 0.00 | 0.00 | 0.00 | 38 | 1013.9 |
| 20260905232112 | 75 | 190 | 1.0 | 2.0 | 0.00 | 0.00 | 0.00 | 37 | 1013.9 |
| 20260905231601 | 75 | 190 | 1.0 | 2.0 | 0.00 | 0.00 | 0.00 | 37 | 1014.0 |
| 20260905231058 | 75 | 190 | 1.0 | 2.0 | 0.00 | 0.00 | 0.00 | 37 | 1014.0 |
| 20260905230605 | 75 | 190 | 1.0 | 2.0 | 0.00 | 0.00 | 0.00 | 36 | 1014.1 |
| 20260905230110 | 75 | 190 | 1.0 | 2.0 | 0.00 | 0.00 | 0.00 | 36 | 1014.2 |
| 20260905225558 | 75 | 190 | 1.0 | 3.0 | 0.00 | 0.00 | 0.00 | 36 | 1014.0 |
| 20260905224610 | 75 | 190 | 1.0 | 3.0 | 0.00 | 0.00 | 0.00 | 36 | 1014.0 |
| 20260905224057 | 75 | 190 | 1.0 | 3.0 | 0.00 | 0.00 | 0.00 | 37 | 1014.1 |
| 20260905223610 | 75 | 190 | 1.0 | 3.0 | 0.00 | 0.00 | 0.00 | 37 | 1014.1 |
| 20260905223051 | 75 | 190 | 1.0 | 2.0 | 0.00 | 0.00 | 0.00 | 37 | 1014.2 |
| 20260905222549 | 75 | 190 | 1.0 | 2.0 | 0.00 | 0.00 | 0.00 | 37 | 1014.2 |
| 20260905222053 | 75 | 190 | 1.0 | 3.0 | 0.00 | 0.00 | 0.00 | 37 | 1014.2 |
| 20260905221555 | 75 | 190 | 1.0 | 3.0 | 0.00 | 0.00 | 0.00 | 37 | 1014.2 |
| 20260905221049 | 75 | 190 | 1.0 | 3.0 | 0.00 | 0.00 | 0.00 | 37 | 1014.2 |
| 20260905220550 | 75 | 190 | 1.0 | 3.0 | 0.00 | 0.00 | 0.00 | 37 | 1014.2 |
| 20260905215048 | 76 | 190 | 1.0 | 3.0 | 0.00 | 0.00 | 0.00 | 36 | 1014.2 |
| 20260905214054 | 76 | 190 | 1.0 | 3.0 | 0.00 | 0.00 | 0.00 | 36 | 1014.2 |
| 20260905213551 | 77 | 190 | 1.0 | 3.0 | 0.00 | 0.00 | 0.00 | 35 | 1014.3 |
| 20260905212544 | 77 | 190 | 1.0 | 3.0 | 0.00 | 0.00 | 0.00 | 35 | 1014.3 |
| 20260905212045 | 77 | 190 | 1.0 | 3.0 | 0.00 | 0.00 | 0.00 | 35 | 1014.3 |
| 20260905211045 | 77 | 190 | 1.0 | 2.0 | 0.00 | 0.00 | 0.00 | 35 | 1014.3 |
| 20260905210538 | 77 | 190 | 1.0 | 3.0 | 0.00 | 0.00 | 0.00 | 35 | 1014.4 |
| 20260905210041 | 77 | 190 | 1.0 | 3.0 | 0.00 | 0.00 | 0.00 | 35 | 1014.3 |
| 20260905205540 | 77 | 190 | 1.0 | 3.0 | 0.00 | 0.00 | 0.00 | 35 | 1014.3 |
| 20260905205034 | 77 | 190 | 1.0 | 3.0 | 0.00 | 0.00 | 0.00 | 35 | 1014.3 |
| 20260905204534 | 77 | 190 | 2.0 | 3.0 | 0.00 | 0.00 | 0.00 | 35 | 1014.4 |
| 20260905204032 | 77 | 190 | 2.0 | 3.0 | 0.00 | 0.00 | 0.00 | 35 | 1014.4 |
| 20260905203530 | 77 | 190 | 1.0 | 2.0 | 0.00 | 0.00 | 0.00 | 34 | 1014.4 |
| 20260905203030 | 78 | 190 | 1.0 | 2.0 | 0.00 | 0.00 | 0.00 | 34 | 1014.3 |
| 20260905202530 | 78 | 190 | 0.0 | 1.0 | 0.00 | 0.00 | 0.00 | 34 | 1014.4 |
| 20260905202045 | 78 | 190 | 0.0 | 1.0 | 0.00 | 0.00 | 0.00 | 34 | 1014.4 |
| 20260905201530 | 78 | 190 | 1.0 | 2.0 | 0.00 | 0.00 | 0.00 | 34 | 1014.5 |
| 20260905201034 | 78 | 190 | 1.0 | 3.0 | 0.00 | 0.00 | 0.00 | 34 | 1014.4 |
| 20260905200527 | 78 | 190 | 2.0 | 3.0 | 0.00 | 0.00 | 0.00 | 33 | 1014.4 |
| 20260905200038 | 78 | 190 | 2.0 | 3.0 | 0.00 | 0.00 | 0.00 | 33 | 1014.4 |
| 20260905195529 | 78 | 190 | 1.0 | 3.0 | 0.00 | 0.00 | 0.00 | 33 | 1014.3 |
| 20260905194028 | 79 | 190 | 1.0 | 3.0 | 0.00 | 0.00 | 0.00 | 32 | 1014.4 |
| 20260905193527 | 80 | 190 | 2.0 | 3.0 | 0.00 | 0.00 | 0.00 | 32 | 1014.4 |
| 20260905193029 | 80 | 190 | 2.0 | 4.0 | 0.00 | 0.00 | 0.00 | 32 | 1014.5 |
| 20260905192533 | 80 | 190 | 2.0 | 4.0 | 0.00 | 0.00 | 0.00 | 32 | 1014.4 |
| 20260905191536 | 80 | 190 | 2.0 | 5.0 | 0.00 | 0.00 | 0.00 | 31 | 1014.4 |
| 20260905190535 | 81 | 189 | 2.0 | 4.0 | 0.00 | 0.00 | 0.00 | 31 | 1014.5 |
| 20260905190033 | 81 | 189 | 2.0 | 5.0 | 0.00 | 0.00 | 0.00 | 31 | 1014.5 |
| 20260905185531 | 81 | 189 | 2.0 | 5.0 | 0.00 | 0.00 | 0.00 | 31 | 1014.4 |
| 20260905185015 | 81 | 188 | 2.0 | 4.0 | 0.00 | 0.00 | 0.00 | 31 | 1014.4 |
| 20260905184513 | 81 | 188 | 2.0 | 4.0 | 0.00 | 0.00 | 0.00 | 31 | 1014.3 |
| 20260905184011 | 81 | 188 | 3.0 | 4.0 | 0.00 | 0.00 | 0.00 | 31 | 1014.2 |
| 20260905183011 | 81 | 188 | 2.0 | 5.0 | 0.00 | 0.00 | 0.00 | 30 | 1014.1 |
| 20260905182518 | 82 | 187 | 3.0 | 4.0 | 0.00 | 0.00 | 0.00 | 30 | 1013.9 |
| 20260905182006 | 82 | 187 | 3.0 | 4.0 | 0.00 | 0.00 | 0.00 | 30 | 1013.9 |
| 20260905181509 | 82 | 186 | 2.0 | 4.0 | 0.00 | 0.00 | 0.00 | 30 | 1013.9 |
| 20260905181002 | 82 | 186 | 2.0 | 4.0 | 0.00 | 0.00 | 0.00 | 30 | 1013.9 |
| 20260905180459 | 82 | 186 | 3.0 | 4.0 | 0.00 | 0.00 | 0.00 | 30 | 1013.8 |
| 20260905180001 | 83 | 186 | 3.0 | 5.0 | 0.00 | 0.00 | 0.00 | 30 | 1013.8 |
| 20260905174456 | 83 | 184 | 2.0 | 4.0 | 0.00 | 0.00 | 0.00 | 30 | 1013.6 |
| 20260905173949 | 83 | 184 | 2.0 | 4.0 | 0.00 | 0.00 | 0.00 | 29 | 1013.5 |
| 20260905173444 | 83 | 184 | 3.0 | 4.0 | 0.00 | 0.00 | 0.00 | 29 | 1013.5 |
| 20260905172849 | 83 | 183 | 3.0 | 5.0 | 0.00 | 0.00 | 0.00 | 29 | 1013.5 |
| 20260905172348 | 84 | 180 | 3.0 | 5.0 | 0.00 | 0.00 | 0.00 | 29 | 1013.5 |
| 20260905171834 | 84 | 179 | 3.0 | 5.0 | 0.00 | 0.00 | 0.00 | 29 | 1013.4 |
| 20260905170840 | 85 | 173 | 3.0 | 6.0 | 0.00 | 0.00 | 0.00 | 28 | 1013.4 |
| 20260905170335 | 85 | 168 | 3.0 | 6.0 | 0.00 | 0.00 | 0.00 | 28 | 1013.4 |
| 20260905165830 | 86 | 159 | 3.0 | 5.0 | 0.00 | 0.00 | 0.00 | 28 | 1013.4 |
| 20260905165325 | 86 | 154 | 3.0 | 5.0 | 0.00 | 0.00 | 0.00 | 27 | 1013.4 |
| 20260905164326 | 87 | 123 | 1.0 | 3.0 | 0.00 | 0.00 | 0.00 | 27 | 1013.4 |
| 20260905163823 | 88 | 123 | 1.0 | 3.0 | 0.00 | 0.00 | 0.00 | 26 | 1013.4 |
| 20260905163336 | 88 | 123 | 1.0 | 2.0 | 0.00 | 0.00 | 0.00 | 26 | 1013.3 |
| 20260905162824 | 88 | 123 | 1.0 | 2.0 | 0.00 | 0.00 | 0.00 | 26 | 1013.2 |
| 20260905162317 | 88 | 123 | 1.0 | 3.0 | 0.00 | 0.00 | 0.00 | 26 | 1013.3 |
| 20260905161815 | 88 | 123 | 2.0 | 6.0 | 0.00 | 0.00 | 0.00 | 26 | 1013.4 |
| 20260905161314 | 88 | 123 | 2.0 | 6.0 | 0.00 | 0.00 | 0.00 | 27 | 1013.4 |
| 20260905160809 | 88 | 121 | 1.0 | 6.0 | 0.00 | 0.00 | 0.00 | 28 | 1013.5 |
| 20260905155319 | 87 | 120 | 3.0 | 6.0 | 0.00 | 0.00 | 0.00 | 33 | 1013.4 |
| 20260905154811 | 87 | 119 | 3.0 | 6.0 | 0.00 | 0.00 | 0.00 | 37 | 1013.4 |
| 20260905154314 | 87 | 116 | 3.0 | 6.0 | 0.00 | 0.00 | 0.00 | 39 | 1013.4 |
| 20260905153809 | 87 | 115 | 2.0 | 6.0 | 0.00 | 0.00 | 0.00 | 41 | 1013.4 |
| 20260905153312 | 87 | 115 | 2.0 | 4.0 | 0.00 | 0.00 | 0.00 | 39 | 1013.4 |
| 20260905152306 | 88 | 117 | 4.0 | 7.0 | 0.00 | 0.00 | 0.00 | 37 | 1013.4 |
| 20260905151806 | 88 | 115 | 5.0 | 7.0 | 0.00 | 0.00 | 0.00 | 35 | 1013.4 |
| 20260905150306 | 88 | 113 | 5.0 | 7.0 | 0.00 | 0.00 | 0.00 | 31 | 1013.4 |
| 20260905145810 | 88 | 117 | 5.0 | 7.0 | 0.00 | 0.00 | 0.00 | 36 | 1013.4 |
| 20260905145309 | 88 | 117 | 5.0 | 8.0 | 0.00 | 0.00 | 0.00 | 32 | 1013.3 |
| 20260905144302 | 89 | 114 | 7.0 | 9.0 | 0.00 | 0.00 | 0.00 | 33 | 1013.4 |
| 20260905143801 | 89 | 111 | 6.0 | 9.0 | 0.00 | 0.00 | 0.00 | 35 | 1013.4 |
| 20260905143300 | 89 | 117 | 5.0 | 8.0 | 0.00 | 0.00 | 0.00 | 34 | 1013.3 |
| 20260905142759 | 89 | 114 | 5.0 | 8.0 | 0.00 | 0.00 | 0.00 | 32 | 1013.4 |
| 20260905141807 | 89 | 117 | 4.0 | 7.0 | 0.00 | 0.00 | 0.00 | 35 | 1013.3 |
| 20260905141254 | 89 | 116 | 5.0 | 9.0 | 0.00 | 0.00 | 0.00 | 35 | 1013.4 |
| 20260905140755 | 89 | 114 | 6.0 | 9.0 | 0.00 | 0.00 | 0.00 | 29 | 1013.3 |
| 20260905140255 | 89 | 115 | 5.0 | 9.0 | 0.00 | 0.00 | 0.00 | 35 | 1013.3 |
| 20260905135257 | 89 | 121 | 4.0 | 8.0 | 0.00 | 0.00 | 0.00 | 36 | 1013.4 |
| 20260905134754 | 89 | 117 | 4.0 | 8.0 | 0.00 | 0.00 | 0.00 | 36 | 1013.4 |
| 20260905133801 | 89 | 117 | 5.0 | 8.0 | 0.00 | 0.00 | 0.00 | 29 | 1013.4 |
| 20260905133301 | 89 | 117 | 5.0 | 8.0 | 0.00 | 0.00 | 0.00 | 28 | 1013.5 |
| 20260905132751 | 89 | 111 | 5.0 | 9.0 | 0.00 | 0.00 | 0.00 | 29 | 1013.6 |
| 20260905132255 | 89 | 113 | 6.0 | 9.0 | 0.00 | 0.00 | 0.00 | 33 | 1013.6 |
| 20260905131254 | 88 | 117 | 6.0 | 9.0 | 0.00 | 0.00 | 0.00 | 34 | 1013.7 |
| 20260905130803 | 88 | 117 | 4.0 | 9.0 | 0.00 | 0.00 | 0.00 | 37 | 1013.7 |
| 20260905125259 | 89 | 103 | 3.0 | 6.0 | 0.00 | 0.00 | 0.00 | 38 | 1013.8 |
| 20260905124749 | 88 | 102 | 3.0 | 6.0 | 0.00 | 0.00 | 0.00 | 37 | 1013.9 |
| 20260905124248 | 89 | 101 | 3.0 | 6.0 | 0.00 | 0.00 | 0.00 | 37 | 1014.0 |
| 20260905123258 | 88 | 101 | 4.0 | 7.0 | 0.00 | 0.00 | 0.00 | 39 | 1014.1 |
| 20260905121746 | 89 | 115 | 3.0 | 7.0 | 0.00 | 0.00 | 0.00 | 37 | 1014.3 |
| 20260905121252 | 89 | 114 | 3.0 | 7.0 | 0.00 | 0.00 | 0.00 | 37 | 1014.4 |
| 20260905120258 | 89 | 102 | 3.0 | 7.0 | 0.00 | 0.00 | 0.00 | 37 | 1014.4 |
| 20260905115749 | 89 | 114 | 4.0 | 7.0 | 0.00 | 0.00 | 0.00 | 36 | 1014.5 |
| 20260905114255 | 88 | 119 | 4.0 | 8.0 | 0.00 | 0.00 | 0.00 | 34 | 1014.6 |
| 20260905113744 | 87 | 111 | 4.0 | 8.0 | 0.00 | 0.00 | 0.00 | 38 | 1014.6 |
| 20260905113245 | 87 | 94 | 4.0 | 7.0 | 0.00 | 0.00 | 0.00 | 41 | 1014.5 |
| 20260905112745 | 87 | 64 | 3.0 | 4.0 | 0.00 | 0.00 | 0.00 | 42 | 1014.6 |
| 20260905112257 | 87 | 64 | 3.0 | 4.0 | 0.00 | 0.00 | 0.00 | 41 | 1014.6 |
| 20260905111747 | 87 | 64 | 3.0 | 4.0 | 0.00 | 0.00 | 0.00 | 44 | 1014.6 |
| 20260905110747 | 87 | 64 | 2.0 | 4.0 | 0.00 | 0.00 | 0.00 | 41 | 1014.5 |
| 20260905110240 | 87 | 64 | 1.0 | 3.0 | 0.00 | 0.00 | 0.00 | 40 | 1014.6 |
| 20260905105753 | 86 | 64 | 2.0 | 5.0 | 0.00 | 0.00 | 0.00 | 40 | 1014.7 |
| 20260905105243 | 86 | 64 | 4.0 | 6.0 | 0.00 | 0.00 | 0.00 | 39 | 1014.8 |
| 20260905104240 | 86 | 49 | 3.0 | 5.0 | 0.00 | 0.00 | 0.00 | 37 | 1014.7 |
| 20260905103236 | 85 | 28 | 3.0 | 4.0 | 0.00 | 0.00 | 0.00 | 35 | 1014.7 |
| 20260905102234 | 85 | 28 | 3.0 | 5.0 | 0.00 | 0.00 | 0.00 | 37 | 1014.9 |
| 20260905100745 | 86 | 355 | 3.0 | 5.0 | 0.00 | 0.00 | 0.00 | 37 | 1015.0 |
| 20260905095752 | 86 | 340 | 4.0 | 5.0 | 0.00 | 0.00 | 0.00 | 35 | 1014.9 |
| 20260905094739 | 86 | 340 | 4.0 | 6.0 | 0.00 | 0.00 | 0.00 | 39 | 1015.0 |
| 20260905094231 | 86 | 340 | 3.0 | 4.0 | 0.00 | 0.00 | 0.00 | 40 | 1015.1 |
| 20260905093733 | 86 | 340 | 3.0 | 3.0 | 0.00 | 0.00 | 0.00 | 39 | 1015.0 |
| 20260905093237 | 86 | 340 | 3.0 | 3.0 | 0.00 | 0.00 | 0.00 | 40 | 1015.1 |
| 20260905092735 | 86 | 340 | 3.0 | 3.0 | 0.00 | 0.00 | 0.00 | 42 | 1015.1 |
| 20260905092224 | 86 | 340 | 3.0 | 4.0 | 0.00 | 0.00 | 0.00 | 42 | 1015.1 |
| 20260905091740 | 86 | 340 | 3.0 | 4.0 | 0.00 | 0.00 | 0.00 | 40 | 1015.1 |
| 20260905091226 | 86 | 340 | 2.0 | 4.0 | 0.00 | 0.00 | 0.00 | 40 | 1015.2 |
| 20260905090225 | 86 | 340 | 3.0 | 4.0 | 0.00 | 0.00 | 0.00 | 43 | 1015.2 |
| 20260905085720 | 85 | 340 | 4.0 | 5.0 | 0.00 | 0.00 | 0.00 | 43 | 1015.1 |
| 20260905084223 | 85 | 340 | 5.0 | 6.0 | 0.00 | 0.00 | 0.00 | 39 | 1015.1 |
| 20260905083719 | 85 | 340 | 5.0 | 8.0 | 0.00 | 0.00 | 0.00 | 39 | 1015.1 |